This demonstration page uses our WeatherBlox Daily Observations layout. Learn more.

Left ArrowRight Arrow

41.55636, -103.73856

Hourly Observations for July 12, 2018

Temp ( °F °C ) Dew Point ( °F °C ) Humidity (%) Winds ( mph kmh ) Pressure ( in mb ) Visibility ( mi km ) Precip ( " mm )
12:58 am 00:58 Clear 68 20 54 12 60 60 SSW 8 13 29.95 1014 10 16 N/A
1:58 am 01:58 Clear 64 17.6 52 11.1 66 66 W 5 7 29.95 1014 10 16 N/A
2:58 am 02:58 Clear 63 17 52 11.2 69 69 NW 10 17 29.96 1015 10 16 N/A
3:58 am 03:58 Clear 63 17 54 12 73 73 NNW 9 15 29.96 1014 10 16 N/A
4:58 am 04:58 Clear 59 15 53 11.8 81 81 N 9 15 29.96 1015 10 16 N/A
5:58 am 05:58 Sunny 59 15 54 12 82 82 N 7 11 29.97 1015 10 16 N/A
6:58 am 06:58 Sunny 63 17.4 56 13.5 78 78 NNE 7 11 29.98 1015 10 16 N/A
7:58 am 07:58 Sunny 67 19.3 56 13.3 68 68 NNE 13 20 30.01 1016 10 16 N/A
8:58 am 08:58 Sunny 70 21.1 57 14 64 64 NNE 14 22 30.03 1017 10 16 N/A
9:58 am 09:58 Sunny 73 23 57 14 57 57 NE 10 17 30.01 1016 10 16 N/A
10:58 am 10:58 Sunny 77 25 57 14 51 51 ENE 10 17 30.01 1016 10 16 N/A
11:58 am 11:58 Sunny 79 26.1 57 14.1 48 48 ENE 12 19 30.00 1016 10 16 N/A
12:58 pm 12:58 Sunny 83 28.2 54 12.4 38 38 ENE 5 7 29.99 1016 10 16 N/A
1:58 pm 13:58 Sunny 84 29 53 11.4 34 34 E 8 13 29.99 1016 10 16 N/A
2:58 pm 14:58 Mostly Sunny 84 29 52 11 33 33 E 10 17 29.97 1015 10 16 N/A
3:58 pm 15:58 Mostly Sunny 83 28.5 53 11.6 35 35 E 12 19 29.96 1015 10 16 N/A
4:58 pm 16:58 Partly Cloudy 82 27.5 54 12 38 38 ENE 6 9 29.95 1014 10 16 N/A
5:58 pm 17:58 Mostly Sunny 70 21 59 15 69 69 NNW 18 30 30.03 1017 10 16 N/A
6:58 pm 18:58 Mostly Cloudy with Showers 64 17.9 60 15.5 86 86 NE 10 17 30.02 1017 10 16 0.02 0.51
7:58 pm 19:58 Mostly Cloudy 66 18.9 62 16.9 88 88 NE 13 20 30.02 1017 10 16 0.02 0.51
8:58 pm 20:58 Mostly Cloudy 64 18 61 16 88 88 NNE 10 17 30.03 1017 10 16 N/A
9:58 pm 21:58 Mostly Clear 61 16 58 14.6 91 91 E 5 7 30.08 1019 10 16 N/A
10:58 pm 22:58 Mostly Clear 60 15.3 58 14.5 95 95 NE 3 6 30.08 1019 10 16 N/A
11:58 pm 23:58 Clear with Mist and Fog 59 15 57 14 94 94 N N/A 30.06 1018 5 8 N/A

Powered by AerisWeather